Find Starlink 33658

NORAD ID: 63384 Int'l Des: 2025-063 Owner: SPXS Country: US Constellation: starlink operational
LEOCIRCULAR

实时位置

正在加载3D地球...

关于 Starlink 33658

正在加载描述...

即将过境

Passes for default location (London). Set your location on the main map for personalized predictions.

高度历史

Loading altitude history...

两行轨道根数

1 63384U 25063X 26106.74342998 .00008517 00000-0 29929-3 0 9996
2 63384 53.1580 235.8406 0000362 40.3002 319.8026 15.30205134 60588
Epoch: Apr 16, 2026 • Age: 13 hours

当前状态

高度 476.5 km
速度 7.63 km/s
星下点 27.20°N, 80.12°E
发射日期 Mar 26, 2025
运行时间 1 years
类型 internet

技术详情

分类 Payload
质量 575.00 kg
干质量 530.00 kg
总质量 575.00 kg
长度 0.30 m
直径 4.10 m
跨度 29.00 m
形状 Box + pan
制造商 SPXS
平台类型 Starlink V2MO
阶段状态 In Orbit
所有者/国家 SPXS/US

Most Searched